Simultaneous Nadir Overpasses (SNOs) Predictions

Prediction of SNOs between LANDSAT-8 and NPP Satellite Orbit:

Table of predicted SNOs for the next 14.0 days since TLE Epoch: 2/26/2016
Index Date (LANDSAT-8) Time (LANDSAT-8) Lat,Lon (LANDSAT-8) SZA (LANDSAT-8 ) Date (NPP) Time (NPP) Lat,Lon (NPP) SZA (NPP ) Distance(km) Time Diff (sec)
1 02/29/2016 06:08:49 -70.26, -95.61 101.94 02/29/2016 06:08:14 -70.25, -95.56 101.94 1.90 35
2 02/29/2016 06:58:16 70.16, 71.89 77.95 02/29/2016 06:58:58 70.14, 71.93 77.93 2.69 42
3 03/02/2016 21:35:43 70.64,-146.81 77.41 03/02/2016 21:34:32 70.70,-147.82 77.52 37.71 71
4 03/02/2016 22:25:18 -70.25, 20.26 102.97 03/02/2016 22:25:07 -70.24, 20.23 102.98 1.92 11
5 03/02/2016 23:14:45 70.15,-172.25 76.92 03/02/2016 23:15:51 70.13,-172.29 76.89 2.53 66
6 03/05/2016 13:52:18 70.29, -31.44 76.04 03/05/2016 13:51:17 70.27, -31.36 76.03 3.51 61
7 03/05/2016 14:41:48 -70.18, 136.04 104.08 03/05/2016 14:41:59 -70.18, 136.10 104.09 2.60 11
8 03/05/2016 15:31:25 69.52, -57.24 75.29 03/05/2016 15:32:33 69.54, -55.64 75.24 62.22 68
9 03/08/2016 06:08:46 70.26, 84.40 74.97 03/08/2016 06:08:09 70.27, 84.41 74.99 1.11 37
10 03/08/2016 06:58:16 -70.16,-108.12 105.15 03/08/2016 06:58:51 -70.17,-108.11 105.14 1.09 35
11 03/10/2016 21:35:38 -70.89, 33.56 105.48 03/10/2016 21:34:29 -70.94, 31.79 105.35 64.60 69
12 03/10/2016 22:25:15 70.23,-159.77 73.88 03/10/2016 22:25:01 70.22,-159.73 73.88 1.92 14
13 03/10/2016 23:14:45 -70.13, 7.71
